www.pogodaiklimat.ru

Погода и климат >> Архив погоды >> Перу >> Pucallpa


ПОГОДА в Pucallpa

  • Прогноз погоды в Pucallpa
  • Монитор погоды в Pucallpa
  • Климат города

АРХИВ ПОГОДЫ в Pucallpa

Время (UTC), дата Ветер
(напр.,м/с)
 
Видим.   Явления Облачность Т
(С)
Тd
(С)
f
(%)
Тe
(С)
Тes
(С)
Комфортность P
(гПа)
Po
(гПа)
Тmin
(С)
Tmax
(С)
R
(мм)
R24
(мм)
S
(см)
15 13.09 штиль 0 8000 м ясно +30.4 +24.6 71 +43 +65 опасность
перегрева
1010.9 993.4
21 13.09 С 3 10 км ясно +33.0 +25.0 63 +47 +51 опасность
перегрева
1003.8 986.6
00 14.09 С 3 10 км ясно +29.4 +24.5 75 +42 +42 опасность
перегрева
1004.9 987.5 +34.4
03 14.09 нст 1 10 км 5/5 500 м
[Sc]
+27.0 +25.1 89 +39 +39 очень
душно
1007.7 990.1
06 14.09 штиль 0 10 км 5/5 500 м
[Sc]
+25.4 +24.2 93 +35 +35 очень
душно
1007.5 994.0
09 14.09 нст 1 10 км 3/3 500 м
[Sc]
+24.8 +24.0 95 +34 +34 очень
душно
1007.8 990.1
12 14.09 С 2 10 км 5/5 500 м
[Sc]
+24.4 +23.0 92 +32 +33 очень
душно
1010.0 992.2 +24.4
15 14.09 СВ 2 10 км ясно +30.0 +24.0 70 +41 +57 опасность
перегрева
1011.1 993.6
18 14.09 С 4 10 км 3/3 600 м
[Cu med, cong]
+32.8 +24.8 63 +46 +56 опасность
перегрева
1008.1 990.8
21 14.09 С 2 10 км 8/3 900 м
[Cu med, cong As trans]
+32.4 +24.0 61 +44 +46 опасность
перегрева
1003.7 986.5
00 15.09 штиль 0 10 км 1/1 600 м
[Sc]
+29.8 +24.4 73 +42 +42 опасность
перегрева
1005.4 988.0 +33.6
03 15.09 ЮЗ 2 10 км 8/3 600 м
[Sc As op]
+27.2 +22.5 76 +36 +36 очень
душно
1008.0 990.4
06 15.09 штиль 0 10 км 3/3 600 м
[Sc]
+25.8 +23.0 85 +34 +34 очень
душно
1007.7 990.0
09 15.09 нст 1 10 км 10/4 450 м
[Sc As op]
+25.4 +22.6 85 +33 +33 очень
душно
1006.9 989.2
12 15.09 0 3000 м гроза, ливневой дождь 10/10 300 м
[Cb cap As op]
+22.8 +22.2 96 1010.5 992.6 +23.0
15 15.09 0 8000 м слабый дождь 10/10 300 м
[]
+22.6 +22.0 96 1012.7 994.8
18 15.09 ЮЗ 2 10 км {дождь} 10/5 600 м
[Sc As op]
+25.6 +23.2 87 +34 +36 очень
душно
1011.6 993.9 4
21 15.09 СЗ 2 10 км {дождь} 10/6 450 м
[Sc As op]
+26.6 +23.8 85 +37 +37 очень
душно
1008.4 990.7
00 16.09 СЗ 2 10 км 10/6 450 м
[Sc As op]
+24.6 +23.8 95 +33 +33 очень
душно
1008.4 990.7 +26.0
03 16.09 С 3 10 км 8/8 450 м
[Sc]
+23.0 +22.6 98 +32 +32 очень
душно
1011.1 993.2
09 16.09 ЮЗ 2 10 км 10/10 450 м
[Sc diur, vesp]
+22.8 +22.2 96 +31 +31 очень
душно
1010.3 992.4
12 16.09 штиль 0 10 км 8/3 450 м
[Sc diur, vesp Ac trans]
+22.2 +19.0 82 +28 +28 душно 1011.3 993.3 +21.8
15 16.09 нст 1 10 км 4/4 450 м
[Cu hum]
+27.6 +23.2 77 +37 +50 очень
душно
1012.6 995.0
18 16.09 С 3 10 км 5/5 600 м
[Cu med, cong]
+31.0 +24.3 68 +43 +52 опасность
перегрева
1010.6 993.2
21 16.09 С 3 10 км 4/4 750 м
[Cu med, cong]
+31.6 +22.8 60 +42 +44 опасность
перегрева
1007.3 990.0
00 17.09 С 3 10 км 9/4 450 м
[Cu hum As op]
+26.8 +22.6 78 +35 +35 очень
душно
1009.1 991.5 +32.4
03 17.09 нст 1 10 км 3/3 600 м
[Cu hum]
+24.8 +23.1 90 +33 +33 очень
душно
1011.2 993.4
06 17.09 ЮВ 2 10 км 3/3 600 м
[Sc]
+24.0 +22.6 92 +31 +31 очень
душно
1010.4 992.6
09 17.09 штиль 0 10 км 3/3 600 м
[Sc]
+23.0 +22.4 96 +31 +31 очень
душно
1009.9 992.0
15 17.09 нст 2 10 км 3/3 900 м
[Cu med, cong]
+29.2 +23.5 71 +40 +51 опасность
солнечного
удара
1012.3 994.7
18 17.09 С 3 10 км 8/8 700 м
[Cu med, cong]
+32.2 +23.2 59 +43 +46 опасность
перегрева
1009.2 991.8
21 17.09 С 3 10 км 4/4 600 м
[Cu hum]
+32.2 +24.1 62 +44 +47 опасность
перегрева
1006.3 989.0
00 18.09 СЗ 2 10 км 3/3 600 м
[Sc]
+29.8 +24.8 75 +43 +43 опасность
перегрева
1007.3 989.8 +32.8
06 18.09 штиль 0 10 км 10/4 450 м
[Sc Ac trans]
+26.2 +23.5 85 +36 +36 очень
душно
1009.5 991.8
09 18.09 штиль 0 10 км 10/4 450 м
[Sc Ac trans]
+26.2 +23.5 85 +36 +36 очень
душно
1008.6 990.9
12 18.09 З 1 8000 м 10/4 450 м
[St Ac trans]
+24.6 +22.7 89 +32 +33 очень
душно
1010.8 993.0 +23.6
15 18.09 нст 2 10 км 10/4 600 м
[Sc As op]
+30.0 +24.3 72 +42 +44 опасность
перегрева
1012.5 995.0
18 18.09 СЗ 4 10 км 8/8 900 м
[Cu med, cong]
+33.4 +24.3 59 +46 +49 опасность
перегрева
1008.9 991.6
21 18.09 С 2 10 км 8/3 600 м
[Cu med, cong Ac trans]
+29.0 +22.4 68 +38 +40 очень
душно
1006.4 988.9
00 19.09 С 3 10 км 3/3 540 м
[Sc]
+27.0 +23.1 79 +36 +36 очень
душно
1007.1 989.5 +34.0
03 19.09 нст 1 10 км 3/3 500 м
[Sc]
+25.0 +23.1 89 +33 +33 очень
душно
1010.0 992.2
06 19.09 штиль 0 10 км 3/3 500 м
[Sc]
+24.6 +22.7 89 +32 +32 очень
душно
1009.9 992.1
09 19.09 штиль 0 10 км 4/4 500 м
[Sc]
+24.0 +22.6 92 +31 +31 очень
душно
1009.1 991.3
12 19.09 штиль 0 10 км 3/3 450 м
[Sc]
+24.4 +23.0 92 +32 +34 очень
душно
1010.7 992.9 +24.4
15 19.09 СЗ 2 10 км 3/3 540 м
[Cu med, cong]
+30.8 +24.9 71 +44 +57 опасность
перегрева
1011.8 994.4
18 19.09 С 4 10 км 8/8 660 м
[Cu med, cong]
+33.0 +24.7 62 +46 +49 опасность
перегрева
1008.7 991.4
21 19.09 С 3 10 км 8/3 900 м
[Cu med, cong As op]
+32.6 +23.1 57 +43 +44 опасность
перегрева
1005.8 988.6
00 20.09 С 2 10 км 5/5 600 м
[St]
+28.8 +23.0 71 +39 +39 очень
душно
1007.3 989.8 +34.0
03 20.09 нст 1 10 км 3/3 600 м
[Sc]
+27.6 +24.1 81 +38 +38 очень
душно
1009.3 991.7
06 20.09 штиль 0 10 км 1/1 600 м
[Sc]
+25.6 +23.7 89 +35 +35 очень
душно
1008.6 991.2
09 20.09 СВ 2 10 км 1/1 600 м
[Sc]
+24.8 +23.1 90 +33 +33 очень
душно
1009.3 991.5
12 20.09 нст 1 10 км 10/4 750 м
[Sc Ac trans]
+25.2 +23.6 91 +34 +35 очень
душно
1010.9 993.1 +24.2

 

Местоположение метеостанции Pucallpa (Перу): широта -8.37 долгота -74.56 высота над уровнем моря 149 м.

В архиве по умолчанию представлена погода в Pucallpa за последнюю неделю. Архивные данные за месяц целиком и за предыдущие месяцы, начиная с января 2011 года, Вы можете получить, выбрав интересующий диапазон дат из раскрывающегося списка и нажав кнопку "Ввод!".


*Определитесь, кто Вы:
робот инопланетянин человек

Внимание! Время в таблицах - всемирное. Для получения местного времени необходимо прибавить поправку, которая в Pucallpa равна -5 ч.

Смотрите также архив погоды в соседних городах и на ближайших метеорологических станциях:

Погода в Tingo Maria (Перу) (188 км)
Погода в Porto Walter (Бразилия) (200 км)
Погода в Marechal Thaumaturgo (Бразилия) (205 км)
Погода в Cruzeiro do Sul (Бразилия) (225 км)
Погода в Huanuco (Перу) (246 км)
Погода в Juanjui (Перу) (272 км)
Погода в Tarapoto (Перу) (288 км)
Погода в Yurimaguas (Перу) (326 км)
Погода в Anta (Перу) (351 км)
Погода в Tarauaca (Бразилия) (419 км)

Пояснения к столбцам:

Ветер - указаны скорость ветра в м/с - средняя за 10 мин, порывы в срок и между сроками (в фигурных скобках) и направление, откуда дует ветер: С - северный, СВ - северо-восточный, В - восточный, ЮВ - юго-восточный, Ю - южный, ЮЗ - юго-западный, З - западный, СЗ - северо-западный.
Видимость - горизонтальная дальность видимости в метрах или километрах. При видимости от 1 до 10 км при отсутствии осадков обычно наблюдается дымка, при ухудшении видимости до 1 км и менее - туман. В сухую погоду видимость может ухудшаться дымом, пылью или мглою.
Явления - указаны атмосферные явления, наблюдавшиеся в срок или в последний час перед сроком; фигурными скобками обозначены явления, наблюдавшиеся между сроками (за 1-3 часа до срока); квадратными скобками обозначены град или гололедные отложения с указанием их диаметра в мм.
Облачность - указаны через наклонную черту общая и нижняя облачность в баллах и высота нижней границы облаков в метрах; квадратными скобками обозначены формы облаков: Ci - перистые, Cs - перисто-слоистые, Cc - перисто-кучевые, Ac - высококучевые, As - высокослоистые, Sc - слоисто-кучевые, Ns - слоисто-дождевые, Cu - кучевые, Cb - кучево-дождевые. Подробнее классификацию облаков см. в Атласе облаков (PDF).
T - Температура воздуха - температура, измеренная на высоте 2 м над землей.
Td - Температура точки росы - температура, при понижении до которой содержащийся в воздухе водяной пар достигнет насыщения.
f - Относительная влажность воздуха - влажноcть воздуха, измеренная на высоте 2 м над землей.
Te - Эффективная температура - температура, которую ощущает одетый по сезону человек в тени. Характеристика душности погоды. При расчете учитывается влияние влажности воздуха и скорости ветра на теплоощущения человека.
Tes - Эффективная температура на солнце - температура, которую ощущает человек, с поправкой на солнечный нагрев. Характеристика знойности погоды. Зависит от высоты солнца над горизонтом, облачности и скорости ветра. Ночью, в пасмурную погоду, а также при ветре 12 м/с и более поправка равна нулю.
P - Атмосферное давление - приведенное к уровню моря атмосферное давление.
Po - Атмосферное давление - измеренное на уровне метеостанции атмосферное давление.
Tmin - Минимальная температура - минимум температуры воздуха на высоте 2 м над землей.
Tmax - Максимальная температура - максимум температуры воздуха на высоте 2 м над землей.
R - Количество осадков - Количество выпавших осадков за период времени, мм. При наведении курсора мыши на число - период времени, за который выпало указанное количество осадков.
R24 - Количество осадков - Количество выпавших осадков за 24 часа, мм.
S - Снежный покров - Высота снежного покрова, см. При наведении курсора мыши на число - состояние снежного покрова и степень покрытия местности в баллах.